Regional Weather Roundup
Issued by NWS

Home | Current Version | Previous Version | Text Only | Print | Product List | Glossary On
Versions: 1 2 3 4 5 6 7 8 9 10 11 12 13 14 15 16 17 18 19 20 21 22 23 24 25 26 27 28 29 30 31 32 33 34 35 36 37 38 39 40 41 42 43 44 45 46 47 48 49 50
000
ASUS44 KBMX 140010
RWRAL

ALABAMA REGIONAL WEATHER ROUNDUP
NATIONAL WEATHER SERVICE BIRMINGHAM AL
600 PM CST SAT FEB 13 2016

NOTE: "FAIR" INDICATES FEW OR NO CLOUDS BELOW 12,000 FEET
WITH NO SIGNIFICANT WEATHER AND/OR OBSTRUCTIONS TO VISIBILITY.

THE REMARK "TC" DENOTES TEMPERATURE IN DEGREES CELSIUS.

ALZ001>011-014-016>018-020-140100-
NORTH ALABAMA

CITY           SKY/WX    TMP DP  RH WIND       PRES   REMARKS
MUSCLE SHOALS  CLOUDY    36   4  26 NE10      30.45S WCI  28
6HR MIN TEMP:  33; 6HR MAX TEMP:  40;

HUNTSVILLE     PTCLDY    33   3  28 NE9       30.44R WCI  25
6HR MIN TEMP:  33; 6HR MAX TEMP:  39;

DECATUR        PTCLDY    32   6  33 N7        30.45S WCI  26
6HR MIN TEMP:  32; 6HR MAX TEMP:  38;

HALEYVILLE     FAIR      33   5  30 NE3       30.43R
6HR MIN TEMP:  32; 6HR MAX TEMP:  39;

GADSDEN        CLEAR     35   8  32 NW6       30.43R WCI  30
6HR MIN TEMP:  35; 6HR MAX TEMP:  41;

$$

ALZ012-013-022-023-030>036-040>044-140100-
WEST CENTRAL ALABAMA

CITY           SKY/WX    TMP DP  RH WIND       PRES   REMARKS
TUSCALOOSA     CLEAR     41   9  26 N8        30.41S
6HR MIN TEMP:  41; 6HR MAX TEMP:  48;

$$

ALZ015-024>027-033>036-040>044-140100-
CENTRAL ALABAMA

CITY           SKY/WX    TMP DP  RH WIND       PRES   REMARKS
BIRMINGHAM     CLEAR     37  10  32 N7        30.43R WCI  32
6HR MIN TEMP:  37; 6HR MAX TEMP:  44;

MONTGOMERY     CLEAR     45  13  27 N6        30.39R
6HR MIN TEMP:  45; 6HR MAX TEMP:  53;

SHELBY CO ARPT PTCLDY    41   8  25 N3        30.40R
6HR MIN TEMP:  41; 6HR MAX TEMP:  46;

MAXWELL AFB    CLEAR     45  12  27 N7        30.38R
6HR MIN TEMP:  45; 6HR MAX TEMP:  51;

GREENVILLE     FAIR      48   8  19 NW6       30.37R
6HR MIN TEMP:  48; 6HR MAX TEMP:  53;

$$

ALZ019-021-028-029-037-038-045>048-140100-
EAST CENTRAL ALABAMA

CITY           SKY/WX    TMP DP  RH WIND       PRES   REMARKS
ANNISTON       CLEAR     39   2  21 N5        30.40R
6HR MIN TEMP:  39; 6HR MAX TEMP:  44;

ALEXANDER CITY CLEAR     39  13  35 N3        30.38R
6HR MIN TEMP:  39; 6HR MAX TEMP:  46;

AUBURN         CLEAR     42   7  23 N7        30.37R
6HR MIN TEMP:  42; 6HR MAX TEMP:  49;

$$

ALZ051>064-140100-
SOUTHWEST ALABAMA

CITY           SKY/WX    TMP DP  RH WIND       PRES   REMARKS
MOBILE         PTCLDY    51  24  34 N7        30.35R
6HR MIN TEMP:  51; 6HR MAX TEMP:  60;

BROOKLEY FIELD PTCLDY    54  24  31 N9        30.36R
6HR MIN TEMP:  54; 6HR MAX TEMP:  58;

EVERGREEN      CLEAR     49  17  28 NW3       30.37R
6HR MIN TEMP:  49; 6HR MAX TEMP:  56;

$$

ALZ049-050-065>069-140100-
SOUTHEAST ALABAMA

CITY           SKY/WX    TMP DP  RH WIND       PRES   REMARKS
DOTHAN         CLEAR     48  16  27 N7        30.36R
6HR MIN TEMP:  48; 6HR MAX TEMP:  56;

OZARK          CLEAR     49  17  27 N5        30.33R
6HR MIN TEMP:  49; 6HR MAX TEMP:  56;

TROY           CLEAR     45  16  31 NW6       30.37R
6HR MIN TEMP:  45; 6HR MAX TEMP:  55;

EUFAULA        FAIR      45  20  36 CALM      30.34R
6HR MIN TEMP:  45; 6HR MAX TEMP:  55;

$$



USA.gov is the U.S. government's official web portal to all federal, state and local government web resources and services.